CW7364 Weather Reports


time (UTC)temp
C
wind
direction
speed
KPH
gust
KPH
rain 1hr
cm
rain 24hr
cm
rain mn
cm
humidity
%
barometer
mb
20260906221015 36 113 11.3 17.7 0.00 0.00 0.00 41 1010.3
20260906220015 36 158 12.9 22.5 0.00 0.00 0.00 42 1010.3
20260906215015 36 113 16.1 22.5 0.00 0.00 0.00 42 1010.4
20260906214015 37 113 14.5 24.1 0.00 0.00 0.00 42 1010.6
20260906213015 37 135 12.9 24.1 0.00 0.00 0.00 42 1010.8
20260906212015 37 113 12.9 25.7 0.00 0.00 0.00 42 1010.8
20260906211015 37 158 12.9 19.3 0.00 0.00 0.00 42 1011.0
20260906210015 37 135 16.1 25.7 0.00 0.00 0.00 43 1011.2
20260906205017 37 113 9.7 17.7 0.00 0.00 0.00 42 1011.4
20260906204037 36 135 11.3 19.3 0.00 0.00 0.00 43 1011.5
20260906203057 37 113 16.1 25.7 0.00 0.00 0.00 43 1011.7
20260906202017 37 135 9.7 22.5 0.00 0.00 0.00 43 1011.7
20260906201037 37 135 12.9 19.3 0.00 0.00 0.00 43 1011.8
20260906200017 37 135 17.7 27.4 0.00 0.00 0.00 43 1011.9
20260906195037 37 113 16.1 24.1 0.00 0.00 0.00 43 1012.1
20260906194017 37 158 12.9 29.0 0.00 0.00 0.00 43 1012.1
20260906193017 37 113 17.7 27.4 0.00 0.00 0.00 41 1012.2
20260906192017 37 113 17.7 32.2 0.00 0.00 0.00 41 1012.2
20260906191017 37 113 20.9 33.8 0.00 0.00 0.00 41 1012.3
20260906190017 36 90 17.7 27.4 0.00 0.00 0.00 40 1012.3
20260906185017 36 113 16.1 24.1 0.00 0.00 0.00 43 1012.4
20260906184057 36 135 17.7 32.2 0.00 0.00 0.00 44 1012.5
20260906183037 36 135 17.7 27.4 0.00 0.00 0.00 44 1012.5
20260906182016 36 158 14.5 22.5 0.00 0.00 0.00 45 1012.7
20260906181017 36 113 16.1 25.7 0.00 0.00 0.00 45 1012.9
20260906180017 36 113 12.9 24.1 0.00 0.00 0.00 46 1013.1
20260906175016 36 113 16.1 25.7 0.00 0.00 0.00 46 1013.3
20260906174057 36 113 14.5 24.1 0.00 0.00 0.00 46 1013.6
20260906173037 36 113 16.1 29.0 0.00 0.00 0.00 47 1013.6
20260906172017 36 135 16.1 25.7 0.00 0.00 0.00 48 1013.6
20260906171036 36 135 12.9 22.5 0.00 0.00 0.00 49 1013.8
20260906170016 35 158 9.7 16.1 0.00 0.00 0.00 51 1013.9
20260906165016 35 90 11.3 24.1 0.00 0.00 0.00 51 1013.9
20260906164016 35 135 14.5 20.9 0.00 0.00 0.00 50 1014.0
20260906163016 35 113 11.3 22.5 0.00 0.00 0.00 50 1014.0
20260906162016 35 135 8.0 19.3 0.00 0.00 0.00 52 1014.1
20260906161016 34 113 8.0 16.1 0.00 0.00 0.00 53 1014.0
20260906160016 34 135 6.4 12.9 0.00 0.00 0.00 55 1014.0
20260906155036 33 135 6.4 14.5 0.00 0.00 0.00 54 1014.1
20260906154016 34 158 4.8 14.5 0.00 0.00 0.00 55 1014.0
20260906153016 33 68 3.2 8.0 0.00 0.00 0.00 58 1014.0
20260906152016 32 158 6.4 9.7 0.00 0.00 0.00 58 1013.9
20260906151036 32 90 1.6 4.8 0.00 0.00 0.00 61 1013.7
20260906150016 32 158 1.6 4.8 0.00 0.00 0.00 64 1013.7
20260906145016 31 90 3.2 9.7 0.00 0.00 0.00 64 1013.6
20260906144016 31 158 3.2 8.0 0.00 0.00 0.00 67 1013.7
20260906143016 30 135 3.2 6.4 0.00 0.00 0.00 69 1013.6
20260906142016 29 135 4.8 8.0 0.00 0.00 0.00 71 1013.6
20260906141016 29 135 8.0 12.9 0.00 0.00 0.00 72 1013.6
20260906140016 28 158 6.4 11.3 0.00 0.00 0.00 74 1013.6
20260906135016 28 158 6.4 11.3 0.00 0.00 0.00 76 1013.6
20260906134016 27 135 4.8 8.0 0.00 0.00 0.00 77 1013.6
20260906133016 27 135 4.8 9.7 0.00 0.00 0.00 78 1013.6
20260906132036 26 113 3.2 6.4 0.00 0.00 0.00 80 1013.6
20260906131016 26 0.0 0.0 0.00 0.00 0.00 82 1013.7
20260906130035 25 0.0 0.0 0.00 0.00 0.00 84 1013.5
20260906125016 25 0.0 1.6 0.00 0.00 0.00 85 1013.4
20260906124015 24 135 1.6 3.2 0.00 0.00 0.00 85 1013.4
20260906123015 24 135 1.6 3.2 0.00 0.00 0.00 85 1013.2
20260906122016 23 135 1.6 3.2 0.00 0.00 0.00 85 1013.1
20260906121036 23 0.0 0.0 0.00 0.00 0.00 85 1012.9
20260906120015 23 135 1.6 3.2 0.00 0.00 0.00 85 1012.8
20260906115015 23 135 1.6 3.2 0.00 0.00 0.00 86 1012.8
20260906114036 23 135 3.2 3.2 0.00 0.00 0.00 86 1012.8
20260906113015 23 135 1.6 3.2 0.00 0.00 0.00 86 1012.9
20260906112035 23 135 1.6 3.2 0.00 0.00 0.00 85 1012.8
20260906111017 23 135 1.6 3.2 0.00 0.00 0.00 85 1012.6
20260906110037 23 135 1.6 3.2 0.00 0.00 0.00 84 1012.5
20260906105057 24 0.0 0.0 0.00 0.00 0.00 84 1012.4
20260906104017 24 0.0 0.0 0.00 0.00 0.00 84 1012.5
20260906103017 24 0.0 0.0 0.00 0.00 0.00 85 1012.5
20260906102017 23 135 1.6 3.2 0.00 0.00 0.00 84 1012.4
20260906101017 23 135 1.6 3.2 0.00 0.00 0.00 84 1012.3
20260906100017 24 135 1.6 3.2 0.00 0.00 0.00 83 1012.3
20260906095017 24 0.0 3.2 0.00 0.00 0.00 83 1012.3
20260906094017 24 0.0 3.2 0.00 0.00 0.00 82 1012.2
20260906093037 25 0.0 0.0 0.00 0.00 0.00 81 1012.2
20260906092017 25 0.0 0.0 0.00 0.00 0.00 81 1012.2
20260906091017 25 0.0 0.0 0.00 0.00 0.00 80 1012.1
20260906090057 25 0.0 0.0 0.00 0.00 0.00 80 1012.1
20260906085017 25 0.0 0.0 0.00 0.00 0.00 79 1012.1
20260906084037 25 0.0 1.6 0.00 0.00 0.00 79 1011.9
20260906083016 26 0.0 0.0 0.00 0.00 0.00 78 1012.0
20260906082016 26 0.0 1.6 0.00 0.00 0.00 79 1011.9
20260906081017 26 0.0 0.0 0.00 0.00 0.00 78 1011.9
20260906080056 26 135 1.6 3.2 0.00 0.00 0.00 78 1012.0
20260906075036 26 0.0 4.8 0.00 0.00 0.00 78 1011.7
20260906074016 26 0.0 0.0 0.00 0.00 0.00 76 1011.8
20260906073017 26 0.0 1.6 0.00 0.00 0.00 75 1012.0
20260906072016 26 0.0 0.0 0.00 0.00 0.00 75 1012.1
20260906071016 26 135 1.6 3.2 0.00 0.00 0.00 75 1012.2
20260906070016 26 135 1.6 1.6 0.00 0.00 0.00 75 1012.1
20260906065016 26 0.0 3.2 0.00 0.00 0.00 74 1012.0
20260906064036 26 0.0 0.0 0.00 0.00 0.00 74 1012.2
20260906063036 26 0.0 0.0 0.00 0.00 0.00 73 1012.2
20260906062016 26 0.0 1.6 0.00 0.00 0.00 73 1012.3
20260906061016 26 0.0 0.0 0.00 0.00 0.00 73 1012.3
20260906060016 27 0.0 1.6 0.00 0.00 0.00 72 1012.3
20260906055016 27 0.0 3.2 0.00 0.00 0.00 71 1012.2
20260906054016 27 0.0 0.0 0.00 0.00 0.00 70 1012.1
20260906053016 27 0.0 0.0 0.00 0.00 0.00 69 1012.2
20260906052016 28 135 1.6 3.2 0.00 0.00 0.00 69 1012.3
20260906051016 28 135 1.6 3.2 0.00 0.00 0.00 69 1012.3
20260906050015 28 135 1.6 3.2 0.00 0.00 0.00 69 1012.3
20260906045017 28 0.0 3.2 0.00 0.00 0.00 68 1012.3
20260906044016 28 0.0 1.6 0.00 0.00 0.00 67 1012.3
20260906043037 28 0.0 0.0 0.00 0.00 0.00 66 1012.3
20260906042036 29 0.0 1.6 0.00 0.00 0.00 65 1012.3
20260906041016 29 135 1.6 4.8 0.00 0.00 0.00 64 1012.3
20260906040036 30 135 1.6 4.8 0.00 0.00 0.00 63 1012.3
20260906035017 30 135 3.2 6.4 0.00 0.00 0.00 62 1012.3
20260906034016 30 135 4.8 8.0 0.00 0.00 0.00 61 1012.3
20260906033016 30 135 4.8 6.4 0.00 0.00 0.00 60 1012.1
20260906032056 30 158 6.4 14.5 0.00 0.00 0.00 60 1012.0
20260906031016 30 135 6.4 12.9 0.00 0.00 0.00 59 1011.9
20260906030016 30 135 6.4 12.9 0.00 0.00 0.00 58 1011.7
20260906025016 30 158 1.6 14.5 0.00 0.00 0.00 57 1011.6
20260906024016 30 0.0 0.0 0.00 0.00 0.00 57 1011.5
20260906023036 30 0.0 0.0 0.00 0.00 0.00 57 1011.2
20260906022036 30 0.0 0.0 0.00 0.00 0.00 57 1011.0
20260906021016 30 0.0 1.6 0.00 0.00 0.00 55 1010.9
20260906020016 31 90 1.6 4.8 0.00 0.00 0.00 55 1010.8
20260906015016 31 90 3.2 6.4 0.00 0.00 0.00 54 1010.7
20260906014016 31 90 4.8 6.4 0.00 0.00 0.00 53 1010.6
20260906013036 31 90 4.8 9.7 0.00 0.00 0.00 52 1010.4
20260906012016 32 90 4.8 6.4 0.00 0.00 0.00 51 1010.3
20260906011016 32 90 4.8 6.4 0.00 0.00 0.00 50 1010.3
20260906010016 32 90 4.8 6.4 0.00 0.00 0.00 49 1010.1
20260906005016 33 113 3.2 6.4 0.00 0.00 0.00 47 1010.2
20260906004016 33 113 4.8 9.7 0.00 0.00 0.00 46 1010.1
20260906003036 34 113 8.0 16.1 0.00 0.00 0.00 45 1010.0
20260906002016 35 113 6.4 9.7 0.00 0.00 0.00 45 1010.1
20260906001036 35 113 6.4 11.3 0.00 0.00 0.00 44 1010.1
20260906000016 35 135 6.4 12.9 0.00 0.00 0.00 44 1010.0
20260905235036 35 135 8.0 14.5 0.00 0.00 0.00 44 1009.9
20260905234015 36 135 8.0 16.1 0.00 0.00 0.00 44 1009.9
20260905233015 36 135 8.0 14.5 0.00 0.00 0.00 43 1009.9
20260905232015 36 90 11.3 16.1 0.00 0.00 0.00 43 1009.9
20260905231015 36 90 9.7 19.3 0.00 0.00 0.00 42 1010.0
20260905230015 36 90 9.7 17.7 0.00 0.00 0.00 42 1009.9
20260905225016 36 90 6.4 11.3 0.00 0.00 0.00 43 1009.9
20260905224015 36 90 8.0 16.1 0.00 0.00 0.00 43 1009.9
20260905223016 36 113 9.7 17.7 0.00 0.00 0.00 43 1010.1
20260905222015 36 113 9.7 17.7 0.00 0.00 0.00 44 1010.1